Tracking 35275 objects as of 8-Sep-2026
HD Live streaming from Space Station
objects crossing your sky now

STARLINK-33931

Track STARLINK-33931 now!
10-day predictions
STARLINK-33931 is classified as:


NORAD ID: 64006
Int'l Code: 2025-101N
Launch date: May 14, 2025
Source: United States (US)
Launch site: AIR FORCE EASTERN TEST RANGE (AFETR)
Your satellite tracking list
Your tracking list is empty




NASA's NSSDC Master Catalog

Two Line Element Set (TLE):
1 64006U 25101N   26251.47257229  .00018047  00000-0  66348-3 0  9999
2 64006  43.0027  45.3422 0001447 272.3922  87.6764 15.27592280 75031
Source of the keplerian elements: AFSPC